Location: Selby
(38.0566°N, 122.2439°W)
Time: 08:40:23
(UTC+00:00)

Okean 2 Rocket - Pass Details

Date: 14 August 2024
Orbit: 613 x 638 km, 82.5° (Epoch: 19 September)

Event Time Altitude Azimuth Distance (km) Brightness Sun altitude
Rises 12:49:59 0° 167° (SSE) 2,923 6.4 -7.0°
Reaches altitude 10° 12:52:20 10° 159° (SSE) 2,017 5.7 -6.6°
Maximum altitude 12:56:28 38° 92° (E) 978 4.8 -5.9°
Drops below altitude 10° 13:00:36 10° 24° (NNE) 2,021 6.5 -5.1°
Sets 13:02:57 0° 17° (NNE) 2,930 7.1 -4.7°
